Regional Weather Roundup
Issued by NWS

Home | Current Version | Previous Version | Text Only | Print | Product List | Glossary On
Versions: 1 2 3 4 5 6 7 8 9 10 11 12 13 14 15 16 17 18 19 20 21 22 23 24 25 26 27 28 29 30 31 32 33 34 35 36 37 38 39 40 41 42 43 44 45 46 47 48 49 50
000
ASUS43 KMKX 260210
RWRWI

WISCONSIN REGIONAL WEATHER ROUNDUP
NATIONAL WEATHER SERVICE MILWAUKEE/SULLIVAN WI
800 PM CST SUN JAN 25 2015

NOTE: "FAIR" INDICATES FEW OR NO CLOUDS BELOW 12,000 FEET WITH NO
SIGNIFICANT WEATHER AND/OR OBSTRUCTIONS TO VISIBILITY.

WIZ001-002-006>008-014>016-023>028-260300-
NORTHWEST WISCONSIN

CITY           SKY/WX    TMP DP  RH WIND       PRES   REMARKS
SUPERIOR ARPT  CLOUDY    17  13  84 CALM      30.04F
ASHLAND        PTCLDY    11   7  84 S3        30.05F
HAYWARD        MOCLDY    11   5  77 CALM      30.02F
SIREN          MOCLDY    22  12  66 SE3       30.03F
CUMBERLAND     CLOUDY    16  10  79 CALM      30.02F
RICE LAKE      CLOUDY    18  11  74 CALM      30.05F
CHETEK         CLOUDY    17  11  77 CALM      30.04F
LADYSMITH      PTCLDY    15  10  78 CALM      30.05S
EAU CLAIRE     PTCLDY    19  10  68 CALM      30.05F
MENOMONIE      PTCLDY    19  14  81 CALM      30.06F
NEW RICHMOND   MOCLDY    16  12  82 CALM      30.05F
OSCEOLA        CLOUDY    20  13  74 S5        30.07F WCI  13
$$

WIZ003>005-009-010-017-018-260300-
NORTH CENTRAL WISCONSIN

CITY           SKY/WX    TMP DP  RH WIND       PRES   REMARKS
MANITOWISH WTR CLOUDY    10   5  80 CALM      29.99F
ARBOR VITAE    CLOUDY    14   7  73 CALM      30.00F
WOODRUFF       CLOUDY    14   7  73 CALM      30.00F
RHINELANDER    CLOUDY    13   5  70 CALM      30.03R
EAGLE RIVER    CLOUDY     9   3  78 CALM      30.01S
LAND O LAKES   CLOUDY     7   4  87 CALM      30.01F
PHILLIPS       CLOUDY    13   7  77 CALM      30.00F
TOMAHAWK       CLOUDY    14   7  75 CALM      30.04S
MEDFORD        CLOUDY    14   7  75 CALM      30.03S
MERRILL        CLOUDY    17   7  65 CALM      30.05R
$$

WIZ029-030-035-036-043>047-260300-
CENTRAL WISCONSIN

CITY           SKY/WX    TMP DP  RH WIND       PRES   REMARKS
WAUSAU         CLOUDY    17   6  62 CALM      30.04R
MOSINEE        CLOUDY    18   9  68 S3        30.06R
MARSHFIELD     CLOUDY    18   9  68 NW5       30.05R WCI  11
STEVENS POINT  CLOUDY    12   6  76 CALM      30.07R
WAUPACA        CLOUDY    18   9  69 CALM      30.08R
WAUTOMA        CLOUDY    14  10  84 CALM      30.09R
WISC RAPIDS    CLOUDY    17   8  67 NW3       30.09R
CAMP DOUGLAS   CLOUDY    18  11  73 NE3       30.07R
$$

WIZ011>013-019>022-031-037>040-048>050-260300-
NORTHEAST WISCONSIN

CITY           SKY/WX    TMP DP  RH WIND       PRES   REMARKS
ANTIGO         CLOUDY    12   6  77 CALM      30.03R
SHAWANO        CLOUDY    18   9  67 CALM      30.09R
OCONTO         CLOUDY    11   8  87 MISG      30.09S
STURGEON BAY   CLEAR     12   3  67 N5        30.09R WCI   4
GREEN BAY      CLOUDY    16   9  74 CALM      30.08S
MANITOWOC      PTCLDY    16  10  77 N6        30.07S WCI   7
APPLETON       MOCLDY    16   7  67 E7        30.06S WCI   6
CLINTONVILLE   CLOUDY    18   9  68 CALM      30.08R
OSHKOSH        MOCLDY    16   8  71 NE6       30.05F WCI   7
$$

WIZ032>034-041-042-053>061-260300-
SOUTHWEST WISCONSIN

CITY           SKY/WX    TMP DP  RH WIND       PRES   REMARKS
LA CROSSE      CLOUDY    21  15  78 N5        30.08R WCI  15
SPARTA         CLOUDY    22  11  63 E5        30.09R WCI  16
VIROQUA        CLOUDY    21  12  67 CALM      30.04R
BOSCOBEL       CLOUDY    21  14  74 CALM      30.09R
PRAIRIE DU CHI CLEAR     19  13  78 CALM      30.08S
PLATTEVILLE    CLEAR     15  11  83 NW5       30.04R WCI   8
$$

WIZ056-057-062-063-064-067-068-260300-
SOUTH CENTRAL WISCONSIN

CITY           SKY/WX    TMP DP  RH WIND       PRES   REMARKS
REEDSBURG      CLOUDY    19  11  68 NE5       30.06R WCI  13
BARABOO/DELLS  CLOUDY    19  10  70 NE5       30.06R WCI  12
LONE ROCK      CLOUDY    21  12  68 N5        30.08R WCI  15
MINERAL POINT  MOCLDY    19  12  73 N5        30.03R WCI  13
MADISON        PTCLDY    16  10  77 N8        30.04S WCI   5
MIDDLETON      CLEAR     19  12  75 N8        30.05R WCI   8
WATERTOWN      CLEAR     15  12  85 N5        30.04S WCI   8
MONROE         CLEAR     18  14  86 NE13      30.00S WCI   4
JANESVILLE     CLEAR     21  10  63 N6        30.03R WCI  14
$$

WIZ051-052-058>065-066-070>072-260300-
SOUTHEAST WISCONSIN

CITY           SKY/WX    TMP DP  RH WIND       PRES   REMARKS
MILWAUKEE      PTCLDY    25  13  60 NE12G22   30.02R WCI  14
WAUKESHA       CLEAR     18  10  73 N7        30.03R WCI   8
MILWAUKEE/TIMM NOT AVBL
RACINE         PTCLDY    25  14  63 NE13      30.03R WCI  14
BURLINGTON     CLEAR     17  11  76 N6        30.01S WCI   9
KENOSHA        CLEAR     23  15  71 N7        30.00R WCI  15
FOND DU LAC    CLEAR     16   9  74 NE8       30.05F WCI   5
SHEBOYGAN      PTCLDY    17  10  74 N8        30.05R WCI   7
WEST BEND      PTCLDY    18  10  73 N6        30.03S WCI   9
JUNEAU         CLEAR     15  10  83 N7        30.05S WCI   5
$$

LSZ147-162-260300-
LAKE SUPERIOR

STATION/POSITION TIME  TEMP    WIND        PRES    WAVE
                       AIR SEA DIR/SP/G            HT/PER
                 (UTC) (F)     (DEG/KT/KT) (MB)    (FT/S)
DEVILS ISLAND    0200   20     160/  4/  6 1018.7F
PORT WING        0100   19     130/  2/  5 1018.3
SAXON HARBOR     0100   14        CALM     1018.6R
$$

LMZ867-665-643>646-260300-
LAKE MICHIGAN

STATION/POSITION TIME  TEMP    WIND        PRES    WAVE
                       AIR SEA DIR/SP/G            HT/PER
                 (UTC) (F)     (DEG/KT/KT) (MB)    (FT/S)
NORTHPORT PIER   0111   19      50/  6/  8 1018.6S
SISTER BAY       0113   13        CALM       N/A
KEWAUNEE LAKESHO 0100   17     350/  7/ 11 1017.6R
SHEBOYGAN LAKESH 0200   20     340/ 14/ 16 1019.0R
PORT WASHINGTON  0140   24      20/  6/ 15 1018.3R
MILWAUKEE LAKESH 0100   27      30/ 18/ 23   N/A
KENOSHA   LAKESH 0200   27      30/ 18/ 21 1016.3R
$$

TC  - TEMPERATURE IN CELSIUS
VSB - VISIBILITY IN STATUTE MILES
WCI - WIND CHILL INDEX
HX  - HEAT INDEX




USA.gov is the U.S. government's official web portal to all federal, state and local government web resources and services.